GW2214 Weather Reports


Display with metric or nautical units.
time (UTC)temp
F
wind
direction
speed
MPH
gust
MPH
rain 1hr
in
rain 24hr
in
rain mn
in
humidity
%
barometer
mb
20260504214557 70 191 0.0 0.0 0.00 0.00 0.00 40 997.5
20260504213054 70 195 0.0 0.0 0.00 0.00 0.00 40 997.5
20260504211553 70 235 0.0 0.0 0.00 0.00 0.00 40 997.5
20260504210053 70 194 0.0 0.0 0.00 0.00 0.00 40 997.5
20260504204549 70 235 0.0 0.0 0.00 0.00 0.00 40 997.5
20260504203101 70 203 0.0 0.0 0.00 0.00 0.00 41 997.6
20260504201547 69 210 0.0 0.0 0.00 0.00 0.00 41 997.8
20260504200046 70 190 0.0 0.0 0.00 0.00 0.00 40 997.9
20260504194544 69 195 0.0 0.0 0.00 0.00 0.00 38 998.1
20260504193043 69 235 0.0 0.0 0.00 0.00 0.00 40 998.2
20260504191541 69 205 0.0 0.0 0.00 0.00 0.00 39 998.6
20260504190038 68 170 0.0 0.0 0.00 0.00 0.00 40 998.6
20260504184537 68 173 0.0 0.0 0.00 0.00 0.00 39 998.7
20260504183034 68 170 0.0 0.0 0.00 0.00 0.00 40 999.0
20260504181533 67 202 0.0 0.0 0.00 0.00 0.00 39 999.2
20260504180030 67 278 0.0 0.0 0.00 0.00 0.00 40 999.3
20260504174529 67 193 0.0 0.0 0.00 0.00 0.00 39 999.5
20260504173027 67 277 0.0 0.0 0.00 0.00 0.00 40 999.8
20260504171525 67 195 0.0 0.0 0.00 0.00 0.00 40 1000.0
20260504081512 49 203 0.0 0.0 0.00 0.00 0.00 69 1002.0
20260504050104 50 220 0.0 0.0 0.00 0.00 0.00 53 1002.0
20260504044557 51 228 0.0 0.0 0.00 0.00 0.00 52 1001.9
20260504043053 51 228 0.0 0.0 0.00 0.00 0.00 52 1001.7
20260504041549 50 230 0.0 0.0 0.00 0.00 0.00 52 1001.6
20260504040051 50 245 0.0 0.0 0.00 0.00 0.00 52 1001.7
20260504034645 51 226 0.0 0.0 0.00 0.00 0.00 52 1001.6
20260504033045 51 224 0.0 0.0 0.00 0.00 0.00 51 1001.5
20260504031547 51 226 0.0 0.0 0.00 0.00 0.00 51 1001.5
20260504030044 51 226 0.0 0.0 0.00 0.00 0.00 51 1001.4
20260504024600 51 223 0.0 0.0 0.00 0.00 0.00 51 1001.5
20260504023045 51 219 0.0 0.0 0.00 0.00 0.00 50 1001.6
20260504021543 52 208 0.0 0.0 0.00 0.00 0.00 49 1001.7
20260504020044 52 222 0.0 0.0 0.00 0.00 0.00 49 1001.6
20260504014544 53 220 0.0 0.0 0.00 0.00 0.00 48 1001.4
20260504013042 53 221 0.0 0.0 0.00 0.00 0.00 46 1001.4
20260504011541 54 222 0.0 0.0 0.00 0.00 0.00 46 1001.1
20260504010041 54 220 0.0 0.0 0.00 0.00 0.00 45 1001.1
20260504004546 55 228 0.0 0.0 0.00 0.00 0.00 45 1000.8
20260504003046 55 216 0.0 0.0 0.00 0.00 0.00 44 1000.6
20260504001543 56 224 0.0 0.0 0.00 0.00 0.00 42 1000.4
20260504000104 57 261 0.0 0.0 0.00 0.00 0.00 41 1000.4
20260503234550 57 228 0.0 0.0 0.00 0.00 0.00 40 1000.3
20260503233039 58 266 0.0 0.0 0.00 0.00 0.00 39 1000.2
20260503231538 58 256 0.0 0.0 0.00 0.00 0.00 39 1000.0
20260503230042 58 235 0.0 0.0 0.00 0.00 0.00 39 1000.0
20260503224537 59 273 0.0 0.0 0.00 0.00 0.00 38 1000.0
20260503223039 59 255 0.0 0.0 0.00 0.00 0.00 38 999.9
20260503221547 59 249 0.0 0.0 0.00 0.00 0.00 37 1000.0
20260503220038 58 268 0.0 0.0 0.00 0.00 0.00 36 1000.1